NSS-12

Last updated on Sun Apr 12 2026 00:02:52 GMT+0000 (Coordinated Universal Time)

1 36032U 09058A 26101.46070839 .00000073 00000+0 00000+0 0 9991 2 36032 0.0870 67.3658 0004933 297.5031 57.6646 1.00271512 60247
UTC large
Height (km)
Speed (km/s)
/
Latitude / Longitude
Inclination (degrees)
Orbital Period (minutes)
Azimuth
Elevation
Range (km)
Doppler Factor

Next 0 passes for location: London (51.5072 / 0.1276)

Sorry there are no passes over London.
NSS-12